Time,TemperatureF,DewpointF,PressureIn,WindDirection,WindDirectionDegrees,WindSpeedMPH,WindSpeedGustMPH,Humidity,HourlyPrecipIn,Conditions,Clouds,dailyrainin,SoftwareType,DateUTC
2013-03-17 00:01:00,1.8,-4.0,30.22,NE,49,0.0,0.0,76,0.00,,,0.00,LWC V2.00 B2112,2013-03-17 08:01:00,
2013-03-17 00:06:00,1.7,-4.1,30.22,NE,50,0.0,0.0,76,0.00,,,0.00,LWC V2.00 B2112,2013-03-17 08:06:00,
2013-03-17 00:11:00,1.6,-4.2,30.22,NE,50,0.0,0.0,76,0.00,,,0.00,LWC V2.00 B2112,2013-03-17 08:11:00,
2013-03-17 00:16:00,1.9,-3.6,30.22,NE,49,0.0,0.0,77,0.00,,,0.00,LWC V2.00 B2112,2013-03-17 08:16:00,
2013-03-17 00:21:00,1.9,-3.9,30.22,NE,49,0.0,0.0,76,0.00,,,0.00,LWC V2.00 B2112,2013-03-17 08:21:00,
2013-03-17 00:26:00,1.7,-4.1,30.23,NE,50,0.0,0.0,76,0.00,,,0.00,LWC V2.00 B2112,2013-03-17 08:26:00,
2013-03-17 00:31:00,1.5,-4.3,30.23,NE,50,0.0,0.0,76,0.00,,,0.00,LWC V2.00 B2112,2013-03-17 08:31:00,
2013-03-17 00:36:00,1.3,-4.2,30.23,NE,50,0.0,0.0,77,0.00,,,0.00,LWC V2.00 B2112,2013-03-17 08:36:00,
2013-03-17 00:41:00,1.1,-4.4,30.23,NE,50,0.0,0.0,77,0.00,,,0.00,LWC V2.00 B2112,2013-03-17 08:41:00,
2013-03-17 00:46:00,1.1,-4.4,30.23,NE,50,0.0,0.0,77,0.00,,,0.00,LWC V2.00 B2112,2013-03-17 08:46:00,
2013-03-17 00:51:00,1.1,-4.4,30.23,NE,50,0.0,0.0,77,0.00,,,0.00,LWC V2.00 B2112,2013-03-17 08:51:00,
2013-03-17 00:56:00,1.0,-4.2,30.23,NE,50,0.0,0.0,78,0.00,,,0.00,LWC V2.00 B2112,2013-03-17 08:56:00,
2013-03-17 01:01:00,1.0,-4.2,30.23,NE,50,0.0,0.0,78,0.00,,,0.00,LWC V2.00 B2112,2013-03-17 09:01:00,
2013-03-17 01:06:00,0.9,-4.3,30.23,NE,50,0.0,0.0,78,0.00,,,0.00,LWC V2.00 B2112,2013-03-17 09:06:00,
2013-03-17 01:11:00,0.8,-4.4,30.24,NE,50,0.0,0.0,78,0.00,,,0.00,LWC V2.00 B2112,2013-03-17 09:11:00,
2013-03-17 01:16:00,0.6,-4.6,30.24,NE,50,0.0,0.0,78,0.00,,,0.00,LWC V2.00 B2112,2013-03-17 09:16:00,
2013-03-17 01:21:00,0.5,-4.7,30.24,NE,50,0.0,0.0,78,0.00,,,0.00,LWC V2.00 B2112,2013-03-17 09:21:00,
2013-03-17 01:26:00,0.4,-4.8,30.24,NE,49,0.0,0.0,78,0.00,,,0.00,LWC V2.00 B2112,2013-03-17 09:26:00,
2013-03-17 01:31:00,0.3,-4.6,30.24,NE,49,0.0,0.0,79,0.00,,,0.00,LWC V2.00 B2112,2013-03-17 09:31:00,
2013-03-17 01:36:00,0.0,-4.9,30.24,NE,50,0.0,0.0,79,0.00,,,0.00,LWC V2.00 B2112,2013-03-17 09:36:00,
2013-03-17 01:41:00,-0.2,-5.1,30.24,NE,50,0.0,0.0,79,0.00,,,0.00,LWC V2.00 B2112,2013-03-17 09:41:00,
2013-03-17 01:46:00,-0.4,-5.3,30.24,NE,50,0.0,0.0,79,0.00,,,0.00,LWC V2.00 B2112,2013-03-17 09:46:00,
2013-03-17 01:51:00,-0.6,-5.5,30.24,NE,50,0.0,0.0,79,0.00,,,0.00,LWC V2.00 B2112,2013-03-17 09:51:00,
2013-03-17 01:56:00,-0.8,-5.7,30.24,NE,50,0.0,0.0,79,0.00,,,0.00,LWC V2.00 B2112,2013-03-17 09:56:00,
2013-03-17 02:01:00,-1.0,-5.9,30.24,NE,49,0.0,0.0,79,0.00,,,0.00,LWC V2.00 B2112,2013-03-17 10:01:00,
2013-03-17 02:06:00,-1.1,-6.0,30.24,NE,50,0.0,0.0,79,0.00,,,0.00,LWC V2.00 B2112,2013-03-17 10:06:00,
2013-03-17 02:11:00,-1.3,-6.2,30.24,NE,50,0.0,0.0,79,0.00,,,0.00,LWC V2.00 B2112,2013-03-17 10:11:00,
2013-03-17 02:16:00,-1.4,-6.0,30.24,NE,50,0.0,0.0,80,0.00,,,0.00,LWC V2.00 B2112,2013-03-17 10:16:00,
2013-03-17 02:21:00,-1.5,-6.1,30.24,NE,50,0.0,0.0,80,0.00,,,0.00,LWC V2.00 B2112,2013-03-17 10:21:00,
2013-03-17 02:26:00,-1.7,-6.3,30.25,NE,49,0.0,0.0,80,0.00,,,0.00,LWC V2.00 B2112,2013-03-17 10:26:00,
2013-03-17 02:31:00,-1.8,-6.4,30.25,NE,50,0.0,0.0,80,0.00,,,0.00,LWC V2.00 B2112,2013-03-17 10:31:00,
2013-03-17 02:36:00,-2.0,-6.4,30.25,NE,50,0.0,0.0,81,0.00,,,0.00,LWC V2.00 B2112,2013-03-17 10:36:00,
2013-03-17 02:41:00,-2.1,-6.5,30.25,NE,49,0.0,0.0,81,0.00,,,0.00,LWC V2.00 B2112,2013-03-17 10:41:00,
2013-03-17 02:46:00,-2.2,-6.6,30.25,NE,49,0.0,0.0,81,0.00,,,0.00,LWC V2.00 B2112,2013-03-17 10:46:00,
2013-03-17 02:51:00,-2.2,-6.6,30.25,NE,50,0.0,0.0,81,0.00,,,0.00,LWC V2.00 B2112,2013-03-17 10:51:00,
2013-03-17 02:56:00,-2.2,-6.6,30.25,NE,50,0.0,0.0,81,0.00,,,0.00,LWC V2.00 B2112,2013-03-17 10:56:00,
2013-03-17 03:01:00,-2.4,-6.8,30.25,NE,50,0.0,0.0,81,0.00,,,0.00,LWC V2.00 B2112,2013-03-17 11:01:00,
2013-03-17 03:06:00,-2.5,-6.9,30.26,NE,49,0.0,0.0,81,0.00,,,0.00,LWC V2.00 B2112,2013-03-17 11:06:00,
2013-03-17 03:11:00,-2.6,-7.0,30.25,NE,49,0.0,0.0,81,0.00,,,0.00,LWC V2.00 B2112,2013-03-17 11:11:00,
2013-03-17 03:16:00,-2.7,-7.1,30.25,NE,50,0.0,0.0,81,0.00,,,0.00,LWC V2.00 B2112,2013-03-17 11:16:00,
2013-03-17 03:21:00,-2.9,-7.3,30.26,NE,50,0.0,0.0,81,0.00,,,0.00,LWC V2.00 B2112,2013-03-17 11:21:00,
2013-03-17 03:26:00,-3.0,-7.4,30.26,NE,49,0.0,0.0,81,0.00,,,0.00,LWC V2.00 B2112,2013-03-17 11:26:00,
2013-03-17 03:31:00,-3.1,-7.4,30.26,NE,50,0.0,0.0,81,0.00,,,0.00,LWC V2.00 B2112,2013-03-17 11:31:00,
2013-03-17 03:36:00,-3.2,-7.3,30.26,NE,50,0.0,0.0,82,0.00,,,0.00,LWC V2.00 B2112,2013-03-17 11:36:00,
2013-03-17 03:41:00,-3.3,-7.4,30.26,NE,49,0.0,0.0,82,0.00,,,0.00,LWC V2.00 B2112,2013-03-17 11:41:00,
2013-03-17 03:46:00,-3.5,-7.6,30.26,NE,49,0.0,0.0,82,0.00,,,0.00,LWC V2.00 B2112,2013-03-17 11:46:00,
2013-03-17 03:51:00,-3.7,-7.8,30.26,NE,50,0.0,0.0,82,0.00,,,0.00,LWC V2.00 B2112,2013-03-17 11:51:00,
2013-03-17 03:56:00,-3.9,-8.0,30.26,NE,50,0.0,0.0,82,0.00,,,0.00,LWC V2.00 B2112,2013-03-17 11:56:00,
2013-03-17 04:01:00,-4.0,-8.1,30.27,NE,49,0.0,0.0,82,0.00,,,0.00,LWC V2.00 B2112,2013-03-17 12:01:00,
2013-03-17 04:06:00,-4.1,-8.2,30.27,NE,50,0.0,0.0,82,0.00,,,0.00,LWC V2.00 B2112,2013-03-17 12:06:00,
2013-03-17 04:11:00,-4.1,-8.2,30.27,NE,50,0.0,0.0,82,0.00,,,0.00,LWC V2.00 B2112,2013-03-17 12:11:00,
2013-03-17 04:16:00,-4.2,-8.3,30.27,NE,49,0.0,0.0,82,0.00,,,0.00,LWC V2.00 B2112,2013-03-17 12:16:00,
2013-03-17 04:21:00,-4.3,-8.4,30.27,NE,49,0.0,0.0,82,0.00,,,0.00,LWC V2.00 B2112,2013-03-17 12:21:00,
2013-03-17 04:26:00,-4.5,-8.6,30.27,NE,50,0.0,0.0,82,0.00,,,0.00,LWC V2.00 B2112,2013-03-17 12:26:00,
2013-03-17 04:31:00,-4.8,-8.9,30.27,NE,50,0.0,0.0,82,0.00,,,0.00,LWC V2.00 B2112,2013-03-17 12:31:00,
2013-03-17 04:36:00,-5.0,-9.1,30.27,NE,49,0.0,0.0,82,0.00,,,0.00,LWC V2.00 B2112,2013-03-17 12:36:00,
2013-03-17 04:41:00,-5.1,-9.2,30.27,NE,49,0.0,0.0,82,0.00,,,0.00,LWC V2.00 B2112,2013-03-17 12:41:00,
2013-03-17 04:46:00,-5.2,-9.3,30.27,NE,49,0.0,0.0,82,0.00,,,0.00,LWC V2.00 B2112,2013-03-17 12:46:00,
2013-03-17 04:51:00,-5.3,-9.4,30.28,NE,50,0.0,0.0,82,0.00,,,0.00,LWC V2.00 B2112,2013-03-17 12:51:00,
2013-03-17 04:56:00,-5.6,-9.6,30.28,NE,49,0.0,0.0,82,0.00,,,0.00,LWC V2.00 B2112,2013-03-17 12:56:00,
2013-03-17 05:01:00,-6.2,-10.2,30.28,NE,50,0.0,0.0,82,0.00,,,0.00,LWC V2.00 B2112,2013-03-17 13:01:00,
2013-03-17 05:06:00,-6.8,-11.1,30.28,NE,50,0.0,0.0,81,0.00,,,0.00,LWC V2.00 B2112,2013-03-17 13:06:00,
2013-03-17 05:11:00,-7.1,-11.4,30.28,NE,50,0.0,0.0,81,0.00,,,0.00,LWC V2.00 B2112,2013-03-17 13:11:00,
2013-03-17 05:16:00,-7.3,-11.6,30.28,NE,50,0.0,0.0,81,0.00,,,0.00,LWC V2.00 B2112,2013-03-17 13:16:00,
2013-03-17 05:21:00,-7.6,-11.9,30.28,NE,49,0.0,0.0,81,0.00,,,0.00,LWC V2.00 B2112,2013-03-17 13:21:00,
2013-03-17 05:26:00,-7.9,-12.1,30.28,NE,50,0.0,0.0,81,0.00,,,0.00,LWC V2.00 B2112,2013-03-17 13:26:00,
2013-03-17 05:31:00,-8.2,-12.4,30.28,NE,50,0.0,0.0,81,0.00,,,0.00,LWC V2.00 B2112,2013-03-17 13:31:00,
2013-03-17 05:36:00,-8.2,-12.4,30.28,NE,49,0.0,0.0,81,0.00,,,0.00,LWC V2.00 B2112,2013-03-17 13:36:00,
2013-03-17 05:41:00,-8.3,-12.5,30.28,NE,50,0.0,0.0,81,0.00,,,0.00,LWC V2.00 B2112,2013-03-17 13:41:00,
2013-03-17 05:46:00,-8.6,-12.8,30.28,NE,50,0.0,0.0,81,0.00,,,0.00,LWC V2.00 B2112,2013-03-17 13:46:00,
2013-03-17 05:51:00,-8.9,-13.1,30.29,NE,50,0.0,0.0,81,0.00,,,0.00,LWC V2.00 B2112,2013-03-17 13:51:00,
2013-03-17 05:56:00,-9.0,-13.2,30.29,NE,49,0.0,0.0,81,0.00,,,0.00,LWC V2.00 B2112,2013-03-17 13:56:00,
2013-03-17 06:01:00,-9.1,-13.3,30.29,NE,50,0.0,0.0,81,0.00,,,0.00,LWC V2.00 B2112,2013-03-17 14:01:00,
2013-03-17 06:06:00,-9.1,-13.3,30.29,NE,50,0.0,0.0,81,0.00,,,0.00,LWC V2.00 B2112,2013-03-17 14:06:00,
2013-03-17 06:11:00,-9.1,-13.3,30.29,NE,50,0.0,0.0,81,0.00,,,0.00,LWC V2.00 B2112,2013-03-17 14:11:00,
2013-03-17 06:16:00,-9.1,-13.3,30.30,NE,49,0.0,0.0,81,0.00,,,0.00,LWC V2.00 B2112,2013-03-17 14:16:00,
2013-03-17 06:21:00,-9.1,-13.3,30.30,NE,50,0.0,0.0,81,0.00,,,0.00,LWC V2.00 B2112,2013-03-17 14:21:00,
2013-03-17 06:26:00,-9.1,-13.3,30.30,NE,50,0.0,0.0,81,0.00,,,0.00,LWC V2.00 B2112,2013-03-17 14:26:00,
2013-03-17 06:31:00,-9.3,-13.5,30.30,NE,49,0.0,0.0,81,0.00,,,0.00,LWC V2.00 B2112,2013-03-17 14:31:00,
2013-03-17 06:36:00,-9.3,-13.5,30.30,NE,49,0.0,0.0,81,0.00,,,0.00,LWC V2.00 B2112,2013-03-17 14:36:00,
2013-03-17 06:41:00,-9.3,-13.5,30.30,NE,50,0.0,0.0,81,0.00,,,0.00,LWC V2.00 B2112,2013-03-17 14:41:00,
2013-03-17 06:46:00,-9.7,-13.9,30.30,NE,50,0.0,0.0,81,0.00,,,0.00,LWC V2.00 B2112,2013-03-17 14:46:00,
2013-03-17 06:51:00,-10.0,-14.2,30.30,NE,50,0.0,0.0,81,0.00,,,0.00,LWC V2.00 B2112,2013-03-17 14:51:00,
2013-03-17 06:56:00,-10.3,-14.5,30.30,NE,50,0.0,0.0,81,0.00,,,0.00,LWC V2.00 B2112,2013-03-17 14:56:00,
2013-03-17 07:01:00,-10.5,-14.9,30.30,NE,50,0.0,0.0,80,0.00,,,0.00,LWC V2.00 B2112,2013-03-17 15:01:00,
2013-03-17 07:06:00,-10.7,-15.1,30.30,NE,49,0.0,0.0,80,0.00,,,0.00,LWC V2.00 B2112,2013-03-17 15:06:00,
2013-03-17 07:11:00,-10.9,-15.3,30.31,NE,49,0.0,0.0,80,0.00,,,0.00,LWC V2.00 B2112,2013-03-17 15:11:00,
2013-03-17 07:16:00,-10.9,-15.3,30.31,NE,49,0.0,0.0,80,0.00,,,0.00,LWC V2.00 B2112,2013-03-17 15:16:00,
2013-03-17 07:21:00,-10.7,-15.1,30.31,NE,50,0.0,0.0,80,0.00,,,0.00,LWC V2.00 B2112,2013-03-17 15:21:00,
2013-03-17 07:26:00,-10.6,-15.0,30.31,NE,50,0.0,0.0,80,0.00,,,0.00,LWC V2.00 B2112,2013-03-17 15:26:00,
2013-03-17 07:31:00,-10.5,-14.7,30.31,NE,50,0.0,0.0,81,0.00,,,0.00,LWC V2.00 B2112,2013-03-17 15:31:00,
2013-03-17 07:36:00,-10.5,-14.7,30.31,NE,50,0.0,0.0,81,0.00,,,0.00,LWC V2.00 B2112,2013-03-17 15:36:00,
2013-03-17 07:41:00,-10.6,-14.8,30.31,NE,49,0.0,0.0,81,0.00,,,0.00,LWC V2.00 B2112,2013-03-17 15:41:00,
2013-03-17 07:46:00,-10.7,-15.1,30.31,NE,49,0.0,0.0,80,0.00,,,0.00,LWC V2.00 B2112,2013-03-17 15:46:00,
2013-03-17 07:51:00,-10.9,-15.1,30.31,NE,49,0.0,0.0,81,0.00,,,0.00,LWC V2.00 B2112,2013-03-17 15:51:00,
2013-03-17 07:56:00,-11.2,-15.6,30.32,NE,50,0.0,0.0,80,0.00,,,0.00,LWC V2.00 B2112,2013-03-17 15:56:00,
2013-03-17 08:01:00,-11.4,-15.8,30.32,NE,49,0.0,0.0,80,0.00,,,0.00,LWC V2.00 B2112,2013-03-17 16:01:00,
2013-03-17 08:06:00,-11.6,-16.0,30.32,NE,50,0.0,0.0,80,0.00,,,0.00,LWC V2.00 B2112,2013-03-17 16:06:00,
2013-03-17 08:11:00,-11.8,-16.2,30.32,NE,50,0.0,0.0,80,0.00,,,0.00,LWC V2.00 B2112,2013-03-17 16:11:00,
2013-03-17 08:16:00,-11.9,-16.3,30.32,NE,49,0.0,0.0,80,0.00,,,0.00,LWC V2.00 B2112,2013-03-17 16:16:00,
2013-03-17 08:21:00,-12.0,-16.4,30.32,NE,49,0.0,0.0,80,0.00,,,0.00,LWC V2.00 B2112,2013-03-17 16:21:00,
2013-03-17 08:26:00,-12.0,-16.4,30.32,NE,50,0.0,0.0,80,0.00,,,0.00,LWC V2.00 B2112,2013-03-17 16:26:00,
2013-03-17 08:31:00,-11.9,-16.3,30.33,NE,50,0.0,0.0,80,0.00,,,0.00,LWC V2.00 B2112,2013-03-17 16:31:00,
2013-03-17 08:36:00,-12.0,-16.4,30.33,NE,50,0.0,0.0,80,0.00,,,0.00,LWC V2.00 B2112,2013-03-17 16:36:00,
2013-03-17 08:41:00,-11.9,-16.3,30.33,NE,50,0.0,0.0,80,0.00,,,0.00,LWC V2.00 B2112,2013-03-17 16:41:00,
2013-03-17 08:46:00,-11.6,-16.0,30.33,NE,50,0.0,0.0,80,0.00,,,0.00,LWC V2.00 B2112,2013-03-17 16:46:00,
2013-03-17 08:51:00,-11.5,-13.2,30.33,NE,50,0.0,0.0,92,0.00,,,0.00,LWC V2.00 B2112,2013-03-17 16:51:00,
2013-03-17 08:56:00,-11.3,-15.7,30.33,NE,49,0.0,0.0,80,0.00,,,0.00,LWC V2.00 B2112,2013-03-17 16:56:00,
2013-03-17 09:01:00,-11.1,-15.5,30.33,NE,50,0.0,0.0,80,0.00,,,0.00,LWC V2.00 B2112,2013-03-17 17:01:00,
2013-03-17 09:06:00,-10.7,-15.1,30.33,NE,49,0.0,0.0,80,0.00,,,0.00,LWC V2.00 B2112,2013-03-17 17:06:00,
2013-03-17 09:11:00,-10.2,-14.6,30.33,NE,50,0.0,0.0,80,0.00,,,0.00,LWC V2.00 B2112,2013-03-17 17:11:00,
2013-03-17 09:16:00,-9.5,-13.7,30.33,NE,50,0.0,0.0,81,0.00,,,0.00,LWC V2.00 B2112,2013-03-17 17:16:00,
2013-03-17 09:21:00,-8.8,-13.0,30.33,NE,49,0.0,0.0,81,0.00,,,0.00,LWC V2.00 B2112,2013-03-17 17:21:00,
2013-03-17 09:26:00,-8.1,-12.3,30.33,NE,50,0.0,0.0,81,0.00,,,0.00,LWC V2.00 B2112,2013-03-17 17:26:00,
2013-03-17 09:31:00,-7.4,-11.7,30.34,NE,49,0.0,0.0,81,0.00,,,0.00,LWC V2.00 B2112,2013-03-17 17:31:00,
2013-03-17 09:36:00,-6.6,-10.9,30.34,NE,49,0.0,0.0,81,0.00,,,0.00,LWC V2.00 B2112,2013-03-17 17:36:00,
2013-03-17 09:41:00,-5.8,-9.8,30.34,NE,49,0.0,0.0,82,0.00,,,0.00,LWC V2.00 B2112,2013-03-17 17:41:00,
2013-03-17 09:46:00,-5.1,-9.2,30.34,NE,49,0.0,0.0,82,0.00,,,0.00,LWC V2.00 B2112,2013-03-17 17:46:00,
2013-03-17 09:51:00,-4.1,-8.2,30.34,NE,50,0.0,0.0,82,0.00,,,0.00,LWC V2.00 B2112,2013-03-17 17:51:00,
2013-03-17 09:56:00,-3.1,-7.2,30.34,NE,50,0.0,0.0,82,0.00,,,0.00,LWC V2.00 B2112,2013-03-17 17:56:00,
2013-03-17 10:01:00,-1.6,-5.5,30.34,NE,49,0.0,0.0,83,0.00,,,0.00,LWC V2.00 B2112,2013-03-17 18:01:00,
2013-03-17 10:06:00,-0.2,-4.4,30.34,NE,50,0.0,0.0,82,0.00,,,0.00,LWC V2.00 B2112,2013-03-17 18:06:00,
2013-03-17 10:11:00,1.0,-3.2,30.34,NE,50,0.0,0.0,82,0.00,,,0.00,LWC V2.00 B2112,2013-03-17 18:11:00,
2013-03-17 10:16:00,2.1,-2.4,30.34,NE,50,0.0,0.0,81,0.00,,,0.00,LWC V2.00 B2112,2013-03-17 18:16:00,
2013-03-17 10:21:00,3.3,-1.5,30.34,NE,49,0.0,0.0,80,0.00,,,0.00,LWC V2.00 B2112,2013-03-17 18:21:00,
2013-03-17 10:26:00,4.0,-1.3,30.33,NE,50,0.0,0.0,78,0.00,,,0.00,LWC V2.00 B2112,2013-03-17 18:26:00,
2013-03-17 10:31:00,4.2,-1.7,30.33,NE,50,0.0,0.0,76,0.00,,,0.00,LWC V2.00 B2112,2013-03-17 18:31:00,
2013-03-17 10:36:00,4.5,-1.9,30.33,NE,50,0.0,1.0,74,0.00,,,0.00,LWC V2.00 B2112,2013-03-17 18:36:00,
2013-03-17 10:41:00,4.8,-1.9,30.33,NE,49,0.0,0.0,73,0.00,,,0.00,LWC V2.00 B2112,2013-03-17 18:41:00,
2013-03-17 10:46:00,4.7,-2.3,30.34,NNW,344,0.0,1.0,72,0.00,,,0.00,LWC V2.00 B2112,2013-03-17 18:46:00,
2013-03-17 10:51:00,4.7,-2.6,30.33,NNW,343,0.0,0.0,71,0.00,,,0.00,LWC V2.00 B2112,2013-03-17 18:51:00,
2013-03-17 10:56:00,4.7,-2.9,30.34,NNW,344,0.0,1.0,70,0.00,,,0.00,LWC V2.00 B2112,2013-03-17 18:56:00,
2013-03-17 11:01:00,5.2,-2.4,30.34,NNW,343,0.0,2.0,70,0.00,,,0.00,LWC V2.00 B2112,2013-03-17 19:01:00,
2013-03-17 11:06:00,5.8,-1.8,30.33,NNW,343,1.0,1.0,70,0.00,,,0.00,LWC V2.00 B2112,2013-03-17 19:06:00,
2013-03-17 11:11:00,6.0,-1.9,30.34,NNW,330,0.0,0.0,69,0.00,,,0.00,LWC V2.00 B2112,2013-03-17 19:11:00,
2013-03-17 11:16:00,6.2,-1.8,30.34,NNW,329,0.0,0.0,69,0.00,,,0.00,LWC V2.00 B2112,2013-03-17 19:16:00,
2013-03-17 11:21:00,6.1,-2.2,30.34,NNW,329,0.0,0.0,68,0.00,,,0.00,LWC V2.00 B2112,2013-03-17 19:21:00,
2013-03-17 11:26:00,6.1,-2.2,30.33,NNW,329,0.0,1.0,68,0.00,,,0.00,LWC V2.00 B2112,2013-03-17 19:26:00,
2013-03-17 11:31:00,5.9,-2.4,30.33,NW,316,0.0,2.0,68,0.00,,,0.00,LWC V2.00 B2112,2013-03-17 19:31:00,
2013-03-17 11:36:00,6.0,-2.3,30.33,NW,316,1.0,2.0,68,0.00,,,0.00,LWC V2.00 B2112,2013-03-17 19:36:00,
2013-03-17 11:41:00,6.8,-1.5,30.33,NW,316,0.0,1.0,68,0.00,,,0.00,LWC V2.00 B2112,2013-03-17 19:41:00,
2013-03-17 11:46:00,7.4,-1.2,30.33,NW,315,0.0,1.0,67,0.00,,,0.00,LWC V2.00 B2112,2013-03-17 19:46:00,
2013-03-17 11:51:00,7.5,-1.4,30.33,NW,315,0.0,0.0,66,0.00,,,0.00,LWC V2.00 B2112,2013-03-17 19:51:00,
2013-03-17 11:56:00,7.4,-1.5,30.34,NW,316,0.0,1.0,66,0.00,,,0.00,LWC V2.00 B2112,2013-03-17 19:56:00,
2013-03-17 12:01:00,7.4,-1.5,30.33,NW,316,0.0,0.0,66,0.00,,,0.00,LWC V2.00 B2112,2013-03-17 20:01:00,
2013-03-17 12:06:00,7.7,-1.6,30.34,NW,312,1.0,2.0,65,0.00,,,0.00,LWC V2.00 B2112,2013-03-17 20:06:00,
2013-03-17 12:11:00,7.8,-1.5,30.34,NW,312,1.0,2.0,65,0.00,,,0.00,LWC V2.00 B2112,2013-03-17 20:11:00,
2013-03-17 12:16:00,7.6,-1.7,30.34,NW,307,0.0,2.0,65,0.00,,,0.00,LWC V2.00 B2112,2013-03-17 20:16:00,
2013-03-17 12:21:00,7.9,-1.4,30.33,NW,307,0.0,1.0,65,0.00,,,0.00,LWC V2.00 B2112,2013-03-17 20:21:00,
2013-03-17 12:26:00,7.9,-1.4,30.33,North,359,1.0,2.0,65,0.00,,,0.00,LWC V2.00 B2112,2013-03-17 20:26:00,
2013-03-17 12:31:00,8.1,-1.5,30.34,North,0,1.0,2.0,64,0.00,,,0.00,LWC V2.00 B2112,2013-03-17 20:31:00,
2013-03-17 12:36:00,8.0,-1.6,30.34,North,0,0.0,1.0,64,0.00,,,0.00,LWC V2.00 B2112,2013-03-17 20:36:00,
2013-03-17 12:41:00,8.0,-1.6,30.34,North,0,0.0,0.0,64,0.00,,,0.00,LWC V2.00 B2112,2013-03-17 20:41:00,
2013-03-17 12:46:00,8.4,-1.2,30.34,North,0,0.0,0.0,64,0.00,,,0.00,LWC V2.00 B2112,2013-03-17 20:46:00,
2013-03-17 12:51:00,8.2,-1.4,30.34,North,0,1.0,3.0,64,0.00,,,0.00,LWC V2.00 B2112,2013-03-17 20:51:00,
2013-03-17 12:56:00,8.2,-1.4,30.34,North,0,0.0,0.0,64,0.00,,,0.00,LWC V2.00 B2112,2013-03-17 20:56:00,
2013-03-17 13:01:00,8.5,-1.1,30.34,WNW,303,0.0,1.0,64,0.00,,,0.00,LWC V2.00 B2112,2013-03-17 21:01:00,
2013-03-17 13:06:00,8.5,-1.5,30.33,NW,304,0.0,2.0,63,0.00,,,0.00,LWC V2.00 B2112,2013-03-17 21:06:00,
2013-03-17 13:11:00,8.6,-1.4,30.33,NW,318,0.0,2.0,63,0.00,,,0.00,LWC V2.00 B2112,2013-03-17 21:11:00,
2013-03-17 13:16:00,8.8,-1.2,30.33,NW,323,0.0,2.0,63,0.00,,,0.00,LWC V2.00 B2112,2013-03-17 21:16:00,
2013-03-17 13:21:00,9.2,-0.8,30.33,NW,316,1.0,2.0,63,0.00,,,0.00,LWC V2.00 B2112,2013-03-17 21:21:00,
2013-03-17 13:26:00,9.3,-0.7,30.33,NW,312,1.0,1.0,63,0.00,,,0.00,LWC V2.00 B2112,2013-03-17 21:26:00,
2013-03-17 13:31:00,9.5,-0.9,30.33,NW,309,0.0,1.0,62,0.00,,,0.00,LWC V2.00 B2112,2013-03-17 21:31:00,
2013-03-17 13:36:00,9.8,-0.6,30.33,NNW,333,0.0,0.0,62,0.00,,,0.00,LWC V2.00 B2112,2013-03-17 21:36:00,
2013-03-17 13:41:00,9.6,-0.8,30.33,WNW,293,2.0,3.0,62,0.00,,,0.00,LWC V2.00 B2112,2013-03-17 21:41:00,
2013-03-17 13:46:00,9.4,-1.0,30.33,NNW,342,0.0,1.0,62,0.00,,,0.00,LWC V2.00 B2112,2013-03-17 21:46:00,
2013-03-17 13:51:00,9.8,-0.6,30.32,WNW,298,0.0,3.0,62,0.00,,,0.00,LWC V2.00 B2112,2013-03-17 21:51:00,
2013-03-17 13:56:00,9.9,-0.5,30.33,WNW,291,1.0,4.0,62,0.00,,,0.00,LWC V2.00 B2112,2013-03-17 21:56:00,
2013-03-17 14:01:00,9.9,-0.5,30.32,NW,323,1.0,2.0,62,0.00,,,0.00,LWC V2.00 B2112,2013-03-17 22:01:00,
2013-03-17 14:06:00,10.3,-0.4,30.32,WNW,298,0.0,3.0,61,0.00,,,0.00,LWC V2.00 B2112,2013-03-17 22:06:00,
2013-03-17 14:11:00,10.9,0.1,30.32,NW,326,2.0,2.0,61,0.00,,,0.00,LWC V2.00 B2112,2013-03-17 22:11:00,
2013-03-17 14:17:00,10.8,-0.3,30.32,WNW,300,0.0,0.0,60,0.00,,,0.00,LWC V2.00 B2112,2013-03-17 22:17:00,
2013-03-17 14:22:00,10.5,-0.6,30.32,WNW,296,1.0,1.0,60,0.00,,,0.00,LWC V2.00 B2112,2013-03-17 22:22:00,
2013-03-17 14:27:00,10.5,-0.6,30.32,WNW,293,0.0,2.0,60,0.00,,,0.00,LWC V2.00 B2112,2013-03-17 22:27:00,
2013-03-17 14:32:00,10.7,-0.4,30.32,WNW,293,0.0,2.0,60,0.00,,,0.00,LWC V2.00 B2112,2013-03-17 22:32:00,
2013-03-17 14:37:00,10.8,-0.3,30.32,WNW,293,1.0,3.0,60,0.00,,,0.00,LWC V2.00 B2112,2013-03-17 22:37:00,
2013-03-17 14:41:00,10.9,-0.2,30.32,NW,306,0.0,2.0,60,0.00,,,0.00,LWC V2.00 B2112,2013-03-17 22:41:00,
2013-03-17 14:47:00,11.2,0.1,30.31,NW,305,0.0,0.0,60,0.00,,,0.00,LWC V2.00 B2112,2013-03-17 22:47:00,
2013-03-17 14:52:00,11.4,0.2,30.31,NW,305,2.0,2.0,60,0.00,,,0.00,LWC V2.00 B2112,2013-03-17 22:52:00,
2013-03-17 14:57:00,11.5,0.3,30.31,NW,304,0.0,0.0,60,0.00,,,0.00,LWC V2.00 B2112,2013-03-17 22:57:00,
2013-03-17 15:02:00,11.8,0.6,30.31,NW,311,0.0,0.0,60,0.00,,,0.00,LWC V2.00 B2112,2013-03-17 23:02:00,
2013-03-17 15:06:00,12.1,0.9,30.31,NW,311,0.0,0.0,60,0.00,,,0.00,LWC V2.00 B2112,2013-03-17 23:06:00,
2013-03-17 15:12:00,13.2,1.6,30.31,North,6,0.0,0.0,59,0.00,,,0.00,LWC V2.00 B2112,2013-03-17 23:12:00,
2013-03-17 15:17:00,13.9,1.9,30.30,North,6,1.0,2.0,58,0.00,,,0.00,LWC V2.00 B2112,2013-03-17 23:17:00,
2013-03-17 15:22:00,13.9,1.5,30.30,North,0,0.0,3.0,57,0.00,,,0.00,LWC V2.00 B2112,2013-03-17 23:22:00,
2013-03-17 15:27:00,14.1,1.7,30.30,North,359,0.0,0.0,57,0.00,,,0.00,LWC V2.00 B2112,2013-03-17 23:27:00,
2013-03-17 15:32:00,14.4,1.6,30.30,NW,324,1.0,2.0,56,0.00,,,0.00,LWC V2.00 B2112,2013-03-17 23:32:00,
2013-03-17 15:37:00,14.0,1.2,30.30,NE,43,0.0,1.0,56,0.00,,,0.00,LWC V2.00 B2112,2013-03-17 23:37:00,
2013-03-17 15:42:00,13.9,1.1,30.29,NW,305,0.0,0.0,56,0.00,,,0.00,LWC V2.00 B2112,2013-03-17 23:42:00,
2013-03-17 15:47:00,13.9,1.1,30.29,NW,306,0.0,1.0,56,0.00,,,0.00,LWC V2.00 B2112,2013-03-17 23:47:00,
2013-03-17 15:52:00,14.3,1.5,30.29,NW,305,0.0,0.0,56,0.00,,,0.00,LWC V2.00 B2112,2013-03-17 23:52:00,
2013-03-17 15:57:00,14.8,2.0,30.29,NW,306,0.0,0.0,56,0.00,,,0.00,LWC V2.00 B2112,2013-03-17 23:57:00,
2013-03-17 16:02:00,15.2,2.4,30.28,NW,306,0.0,0.0,56,0.00,,,0.00,LWC V2.00 B2112,2013-03-18 00:02:00,
2013-03-17 16:07:00,14.7,1.5,30.28,NW,306,0.0,0.0,55,0.00,,,0.00,LWC V2.00 B2112,2013-03-18 00:07:00,
2013-03-17 16:12:00,14.5,1.7,30.28,NW,305,0.0,0.0,56,0.00,,,0.00,LWC V2.00 B2112,2013-03-18 00:12:00,
2013-03-17 16:17:00,14.4,2.0,30.28,NW,304,0.0,0.0,57,0.00,,,0.00,LWC V2.00 B2112,2013-03-18 00:17:00,
2013-03-17 16:22:00,14.4,1.6,30.28,NW,304,0.0,0.0,56,0.00,,,0.00,LWC V2.00 B2112,2013-03-18 00:22:00,
2013-03-17 16:27:00,14.7,1.9,30.27,NW,304,0.0,1.0,56,0.00,,,0.00,LWC V2.00 B2112,2013-03-18 00:27:00,
2013-03-17 16:32:00,14.9,2.5,30.27,WNW,302,0.0,0.0,57,0.00,,,0.00,LWC V2.00 B2112,2013-03-18 00:32:00,
2013-03-17 16:37:00,15.1,2.3,30.27,WNW,303,0.0,0.0,56,0.00,,,0.00,LWC V2.00 B2112,2013-03-18 00:37:00,
2013-03-17 16:42:00,15.5,3.0,30.27,WNW,303,0.0,0.0,57,0.00,,,0.00,LWC V2.00 B2112,2013-03-18 00:42:00,
2013-03-17 16:47:00,15.3,2.5,30.26,WNW,302,0.0,0.0,56,0.00,,,0.00,LWC V2.00 B2112,2013-03-18 00:47:00,
2013-03-17 16:52:00,15.2,2.0,30.26,WNW,303,0.0,0.0,55,0.00,,,0.00,LWC V2.00 B2112,2013-03-18 00:52:00,
2013-03-17 16:57:00,15.2,2.4,30.26,WNW,303,0.0,0.0,56,0.00,,,0.00,LWC V2.00 B2112,2013-03-18 00:57:00,
2013-03-17 17:02:00,15.5,2.6,30.26,WNW,302,0.0,0.0,56,0.00,,,0.00,LWC V2.00 B2112,2013-03-18 01:02:00,
2013-03-17 17:07:00,15.8,2.9,30.26,WNW,302,0.0,0.0,56,0.00,,,0.00,LWC V2.00 B2112,2013-03-18 01:07:00,
2013-03-17 17:12:00,15.7,2.4,30.26,WNW,303,0.0,0.0,55,0.00,,,0.00,LWC V2.00 B2112,2013-03-18 01:12:00,
2013-03-17 17:17:00,15.9,2.6,30.26,WNW,303,0.0,0.0,55,0.00,,,0.00,LWC V2.00 B2112,2013-03-18 01:17:00,
2013-03-17 17:22:00,16.1,3.2,30.26,WNW,303,0.0,1.0,56,0.00,,,0.00,LWC V2.00 B2112,2013-03-18 01:22:00,
2013-03-17 17:27:00,16.8,3.5,30.26,WNW,302,0.0,0.0,55,0.00,,,0.00,LWC V2.00 B2112,2013-03-18 01:27:00,
2013-03-17 17:32:00,17.4,3.2,30.26,NW,318,0.0,0.0,53,0.00,,,0.00,LWC V2.00 B2112,2013-03-18 01:32:00,
2013-03-17 17:37:00,17.1,3.0,30.25,NW,323,0.0,1.0,53,0.00,,,0.00,LWC V2.00 B2112,2013-03-18 01:37:00,
2013-03-17 17:42:00,17.0,2.9,30.25,NW,312,0.0,0.0,53,0.00,,,0.00,LWC V2.00 B2112,2013-03-18 01:42:00,
2013-03-17 17:47:00,16.8,2.7,30.26,NW,309,0.0,0.0,53,0.00,,,0.00,LWC V2.00 B2112,2013-03-18 01:47:00,
2013-03-17 17:52:00,16.8,2.7,30.25,NW,309,0.0,0.0,53,0.00,,,0.00,LWC V2.00 B2112,2013-03-18 01:52:00,
2013-03-17 17:57:00,16.6,2.5,30.25,NW,309,0.0,0.0,53,0.00,,,0.00,LWC V2.00 B2112,2013-03-18 01:57:00,
2013-03-17 18:02:00,16.6,2.9,30.25,NW,309,0.0,0.0,54,0.00,,,0.00,LWC V2.00 B2112,2013-03-18 02:02:00,
2013-03-17 18:07:00,16.5,2.8,30.25,NW,308,0.0,0.0,54,0.00,,,0.00,LWC V2.00 B2112,2013-03-18 02:07:00,
2013-03-17 18:12:00,16.4,2.7,30.25,NW,309,0.0,0.0,54,0.00,,,0.00,LWC V2.00 B2112,2013-03-18 02:12:00,
2013-03-17 18:17:00,16.3,3.0,30.25,NW,309,0.0,0.0,55,0.00,,,0.00,LWC V2.00 B2112,2013-03-18 02:17:00,
2013-03-17 18:22:00,16.2,2.9,30.24,NW,309,0.0,0.0,55,0.00,,,0.00,LWC V2.00 B2112,2013-03-18 02:22:00,
2013-03-17 18:27:00,16.0,3.1,30.24,NW,309,0.0,0.0,56,0.00,,,0.00,LWC V2.00 B2112,2013-03-18 02:27:00,
2013-03-17 18:31:00,15.9,3.0,30.24,NW,308,0.0,0.0,56,0.00,,,0.00,LWC V2.00 B2112,2013-03-18 02:31:00,
2013-03-17 18:36:00,15.7,2.8,30.24,NW,309,0.0,0.0,56,0.00,,,0.00,LWC V2.00 B2112,2013-03-18 02:36:00,
2013-03-17 18:41:00,15.7,3.2,30.24,NW,309,0.0,0.0,57,0.00,,,0.00,LWC V2.00 B2112,2013-03-18 02:41:00,
2013-03-17 18:46:00,15.6,3.1,30.24,NW,309,0.0,0.0,57,0.00,,,0.00,LWC V2.00 B2112,2013-03-18 02:46:00,
2013-03-17 18:51:00,15.4,2.9,30.24,NW,309,0.0,0.0,57,0.00,,,0.00,LWC V2.00 B2112,2013-03-18 02:51:00,
2013-03-17 18:56:00,15.3,2.8,30.24,NW,308,0.0,0.0,57,0.00,,,0.00,LWC V2.00 B2112,2013-03-18 02:56:00,
2013-03-17 19:01:00,15.2,2.7,30.23,NW,309,0.0,0.0,57,0.00,,,0.00,LWC V2.00 B2112,2013-03-18 03:01:00,
2013-03-17 19:06:00,15.0,2.9,30.23,NW,309,0.0,0.0,58,0.00,,,0.00,LWC V2.00 B2112,2013-03-18 03:06:00,
2013-03-17 19:11:00,14.8,2.7,30.23,NW,308,0.0,0.0,58,0.00,,,0.00,LWC V2.00 B2112,2013-03-18 03:11:00,
2013-03-17 19:16:00,14.5,2.8,30.23,NW,309,0.0,0.0,59,0.00,,,0.00,LWC V2.00 B2112,2013-03-18 03:16:00,
2013-03-17 19:22:00,14.3,2.6,30.23,NW,308,0.0,0.0,59,0.00,,,0.00,LWC V2.00 B2112,2013-03-18 03:22:00,
2013-03-17 19:27:00,14.0,2.7,30.24,NW,308,0.0,0.0,60,0.00,,,0.00,LWC V2.00 B2112,2013-03-18 03:27:00,
2013-03-17 19:32:00,13.6,2.7,30.23,NW,309,0.0,0.0,61,0.00,,,0.00,LWC V2.00 B2112,2013-03-18 03:32:00,
2013-03-17 19:37:00,13.3,2.4,30.23,NW,309,0.0,0.0,61,0.00,,,0.00,LWC V2.00 B2112,2013-03-18 03:37:00,
2013-03-17 19:42:00,12.8,1.9,30.23,NW,309,0.0,0.0,61,0.00,,,0.00,LWC V2.00 B2112,2013-03-18 03:42:00,
2013-03-17 19:47:00,12.3,1.8,30.23,NW,308,0.0,0.0,62,0.00,,,0.00,LWC V2.00 B2112,2013-03-18 03:47:00,
2013-03-17 19:51:00,11.8,1.3,30.23,NW,309,0.0,0.0,62,0.00,,,0.00,LWC V2.00 B2112,2013-03-18 03:51:00,
2013-03-17 19:57:00,11.3,1.2,30.23,NW,309,0.0,0.0,63,0.00,,,0.00,LWC V2.00 B2112,2013-03-18 03:57:00,
2013-03-17 20:00:00,10.9,1.1,30.23,NW,309,0.0,0.0,64,0.00,,,0.00,LWC V2.00 B2112,2013-03-18 04:00:00,
2013-03-17 20:05:00,10.4,0.3,30.23,NW,308,0.0,0.0,63,0.00,,,0.00,LWC V2.00 B2112,2013-03-18 04:05:00,
2013-03-17 20:10:00,9.9,0.2,30.23,NW,309,0.0,0.0,64,0.00,,,0.00,LWC V2.00 B2112,2013-03-18 04:10:00,
2013-03-17 20:15:00,9.5,-0.5,30.23,NW,309,0.0,0.0,63,0.00,,,0.00,LWC V2.00 B2112,2013-03-18 04:15:00,
2013-03-17 20:20:00,8.8,-0.9,30.23,NW,308,0.0,0.0,64,0.00,,,0.00,LWC V2.00 B2112,2013-03-18 04:20:00,
2013-03-17 20:21:00,8.6,-0.7,30.22,NW,308,0.0,0.0,65,0.00,,,0.00,LWC V2.00 B2112,2013-03-18 04:21:00,
2013-03-17 20:26:00,8.0,-1.0,30.23,NW,309,0.0,0.0,66,0.00,,,0.00,LWC V2.00 B2112,2013-03-18 04:26:00,
2013-03-17 20:31:00,7.6,-1.4,30.22,NW,309,0.0,0.0,66,0.00,,,0.00,LWC V2.00 B2112,2013-03-18 04:31:00,
2013-03-17 20:36:00,7.2,-1.4,30.23,NW,309,0.0,0.0,67,0.00,,,0.00,LWC V2.00 B2112,2013-03-18 04:36:00,
2013-03-17 20:41:00,6.9,-1.7,30.22,NW,309,0.0,0.0,67,0.00,,,0.00,LWC V2.00 B2112,2013-03-18 04:41:00,
2013-03-17 20:46:00,6.8,-1.5,30.22,NW,308,0.0,0.0,68,0.00,,,0.00,LWC V2.00 B2112,2013-03-18 04:46:00,
2013-03-17 20:51:00,6.6,-1.7,30.22,NW,309,0.0,0.0,68,0.00,,,0.00,LWC V2.00 B2112,2013-03-18 04:51:00,
2013-03-17 20:56:00,6.4,-1.9,30.22,NW,309,0.0,0.0,68,0.00,,,0.00,LWC V2.00 B2112,2013-03-18 04:56:00,
2013-03-17 21:01:00,6.2,-1.8,30.22,NW,309,0.0,0.0,69,0.00,,,0.00,LWC V2.00 B2112,2013-03-18 05:01:00,
2013-03-17 21:06:00,5.8,-2.1,30.22,NW,308,0.0,0.0,69,0.00,,,0.00,LWC V2.00 B2112,2013-03-18 05:06:00,
2013-03-17 21:11:00,5.7,-2.2,30.22,NW,308,0.0,0.0,69,0.00,,,0.00,LWC V2.00 B2112,2013-03-18 05:11:00,
2013-03-17 21:16:00,5.5,-2.4,30.22,NW,308,0.0,0.0,69,0.00,,,0.00,LWC V2.00 B2112,2013-03-18 05:16:00,
2013-03-17 21:21:00,5.2,-2.7,30.22,NW,309,0.0,0.0,69,0.00,,,0.00,LWC V2.00 B2112,2013-03-18 05:21:00,
2013-03-17 21:26:00,4.9,-2.7,30.22,NW,309,0.0,0.0,70,0.00,,,0.00,LWC V2.00 B2112,2013-03-18 05:26:00,
2013-03-17 21:31:00,4.7,-2.9,30.22,NW,309,0.0,0.0,70,0.00,,,0.00,LWC V2.00 B2112,2013-03-18 05:31:00,
2013-03-17 21:36:00,4.5,-2.8,30.22,NW,308,0.0,0.0,71,0.00,,,0.00,LWC V2.00 B2112,2013-03-18 05:36:00,
2013-03-17 21:41:00,4.3,-3.0,30.22,NW,308,0.0,0.0,71,0.00,,,0.00,LWC V2.00 B2112,2013-03-18 05:41:00,
2013-03-17 21:46:00,4.1,-2.9,30.22,NW,309,0.0,0.0,72,0.00,,,0.00,LWC V2.00 B2112,2013-03-18 05:46:00,
2013-03-17 21:51:00,3.7,-3.3,30.22,NW,309,0.0,0.0,72,0.00,,,0.00,LWC V2.00 B2112,2013-03-18 05:51:00,
2013-03-17 21:56:00,3.4,-3.6,30.22,NW,308,0.0,0.0,72,0.00,,,0.00,LWC V2.00 B2112,2013-03-18 05:56:00,
2013-03-17 22:01:00,3.2,-3.8,30.22,NW,309,0.0,0.0,72,0.00,,,0.00,LWC V2.00 B2112,2013-03-18 06:01:00,
2013-03-17 22:06:00,3.0,-3.9,30.21,NW,309,0.0,0.0,72,0.00,,,0.00,LWC V2.00 B2112,2013-03-18 06:06:00,
2013-03-17 22:11:00,2.8,-3.9,30.21,NW,308,0.0,0.0,73,0.00,,,0.00,LWC V2.00 B2112,2013-03-18 06:11:00,
2013-03-17 22:16:00,2.7,-4.0,30.21,NW,308,0.0,0.0,73,0.00,,,0.00,LWC V2.00 B2112,2013-03-18 06:16:00,
2013-03-17 22:21:00,2.4,-4.2,30.21,NW,309,0.0,0.0,73,0.00,,,0.00,LWC V2.00 B2112,2013-03-18 06:21:00,
2013-03-17 22:26:00,2.2,-4.2,30.21,NW,309,0.0,0.0,74,0.00,,,0.00,LWC V2.00 B2112,2013-03-18 06:26:00,
2013-03-17 22:31:00,1.9,-4.4,30.21,NW,309,0.0,0.0,74,0.00,,,0.00,LWC V2.00 B2112,2013-03-18 06:31:00,
2013-03-17 22:36:00,1.8,-4.5,30.21,NW,309,0.0,0.0,74,0.00,,,0.00,LWC V2.00 B2112,2013-03-18 06:36:00,
2013-03-17 22:41:00,1.6,-4.5,30.21,NW,309,0.0,0.0,75,0.00,,,0.00,LWC V2.00 B2112,2013-03-18 06:41:00,
2013-03-17 22:46:00,1.5,-4.6,30.20,NW,309,0.0,0.0,75,0.00,,,0.00,LWC V2.00 B2112,2013-03-18 06:46:00,
2013-03-17 22:51:00,1.3,-4.7,30.20,NW,308,0.0,0.0,75,0.00,,,0.00,LWC V2.00 B2112,2013-03-18 06:51:00,
2013-03-17 22:56:00,1.1,-4.9,30.20,NW,309,0.0,0.0,75,0.00,,,0.00,LWC V2.00 B2112,2013-03-18 06:56:00,
2013-03-17 23:01:00,0.8,-5.2,30.20,NW,309,0.0,0.0,75,0.00,,,0.00,LWC V2.00 B2112,2013-03-18 07:01:00,
2013-03-17 23:06:00,0.5,-5.5,30.20,NW,309,0.0,0.0,75,0.00,,,0.00,LWC V2.00 B2112,2013-03-18 07:06:00,
2013-03-17 23:11:00,0.2,-5.8,30.20,NW,309,0.0,0.0,75,0.00,,,0.00,LWC V2.00 B2112,2013-03-18 07:11:00,
2013-03-17 23:16:00,-0.1,-6.1,30.20,NW,309,0.0,0.0,75,0.00,,,0.00,LWC V2.00 B2112,2013-03-18 07:16:00,
2013-03-17 23:21:00,-0.3,-6.0,30.20,NW,309,0.0,0.0,76,0.00,,,0.00,LWC V2.00 B2112,2013-03-18 07:21:00,
2013-03-17 23:26:00,-0.7,-6.4,30.20,NW,308,0.0,0.0,76,0.00,,,0.00,LWC V2.00 B2112,2013-03-18 07:26:00,
2013-03-17 23:31:00,-1.0,-6.7,30.19,NW,309,0.0,0.0,76,0.00,,,0.00,LWC V2.00 B2112,2013-03-18 07:31:00,
2013-03-17 23:36:00,-1.2,-6.9,30.19,NW,309,0.0,0.0,76,0.00,,,0.00,LWC V2.00 B2112,2013-03-18 07:36:00,
2013-03-17 23:41:00,-1.4,-6.8,30.19,NW,308,0.0,0.0,77,0.00,,,0.00,LWC V2.00 B2112,2013-03-18 07:41:00,
2013-03-17 23:46:00,-1.6,-7.0,30.19,NW,308,0.0,0.0,77,0.00,,,0.00,LWC V2.00 B2112,2013-03-18 07:46:00,
2013-03-17 23:51:00,-1.8,-7.2,30.19,NW,308,0.0,0.0,77,0.00,,,0.00,LWC V2.00 B2112,2013-03-18 07:51:00,
2013-03-17 23:56:00,-2.0,-7.4,30.18,NW,309,0.0,0.0,77,0.00,,,0.00,LWC V2.00 B2112,2013-03-18 07:56:00,